Flag for Austria Weather past 2 weeks in Judenburg, Styria, Austria

Now
66 °F

Partly sunny.


Feels Like: 66 °F
Forecast: 48 / 85 °F
Wind: 5 mph from West

Location: Zeltweg

Current Time: Aug 27, 2015 at 9:50:06 PM

Latest Report: Aug 27, 2015 at 8:50 PM


Visibility: 12 mi

Pressure: 30.07 "Hg (27.58 "Hg at 739m altitude)

Humidity: 73%

Dew point: 57 °F

Location of JudenburgLocation

Historic Weather in Judenburg — Graph

°F

Judenburg temperature yesterday

Maximum temperature yesterday: 75 °F (at 4:50 PM)
Minimum temperature yesterday: 52 °F (at 5:50 AM)
Average temperature yesterday: 62 °F

Past Weeks' High & Low Weather Summary

 TemperatureHumidityPressure
High88 °F (Aug 13, 2:50 PM)100% (Aug 17, 3:20 PM)30.27 "Hg (Aug 17, 3:20 PM)
Low48 °F (Aug 23, 6:50 AM)25% (Aug 13, 3:50 PM)29.77 "Hg (Aug 16, 3:50 PM)
Average65 °F71%30.04 "Hg
* Reported Aug 12 8:50 PM — Aug 27 8:50 PM, Judenburg, Weather by CustomWeather, © 2015

Note: Actual official high and low records may vary slightly from our data, if they occured in-between our weather recording intervals... More about our weather records

Advertising

Judenburg weather history for previous 24 hours

 ConditionsComfort  
Time TempWeatherWind HumidityBarometerVisibility
8:50 PM
Thu, Aug 27
66 °FPartly sunny.5 mph73%30.07 "Hg12 mi
7:50 PM75 °FPartly sunny.5 mph57%30.04 "Hg25 mi
6:50 PM79 °FScattered clouds.3 mph51%30.04 "Hg31 mi
5:50 PM81 °FScattered clouds.10 mph42%30.04 "Hg31 mi
4:50 PM81 °FScattered clouds.12 mph42%30.04 "Hg31 mi
4:20 PM82 °FScattered clouds.7 mph40%30.04 "Hg31 mi
3:50 PM82 °FPartly sunny.6 mph40%30.04 "Hg31 mi
3:20 PM82 °FPartly sunny.3 mph40%30.04 "Hg31 mi
2:50 PM81 °FPartly sunny.2 mph45%30.07 "Hg31 mi
2:20 PM79 °FPartly sunny.3 mph48%30.07 "Hg31 mi
1:50 PM79 °FPartly sunny.2 mph48%30.07 "Hg31 mi
1:20 PM77 °FPartly sunny.2 mph51%30.09 "Hg31 mi
12:50 PM77 °FPartly sunny.1 mph54%30.09 "Hg31 mi
12:20 PM75 °FPartly sunny.2 mph57%30.09 "Hg31 mi
11:50 AM72 °FPartly sunny.2 mph57%30.12 "Hg31 mi
11:20 AM70 °FScattered clouds.2 mph64%30.12 "Hg31 mi
10:50 AM66 °FPassing clouds.2 mph73%30.12 "Hg31 mi
10:20 AM64 °FScattered clouds.2 mph73%30.12 "Hg31 mi
9:50 AM61 °FScattered clouds.1 mph83%30.15 "Hg25 mi
9:20 AM61 °FScattered clouds.1 mph94%30.15 "Hg9 mi
8:50 AM57 °FCool.3 mph88%30.15 "Hg9 mi
8:20 AM54 °FFog.1 mph100%30.15 "Hg2 mi
7:50 AM54 °FSleet. Scattered clouds.1 mph94%30.15 "Hg1 mi
7:20 AM52 °FFog.1 mph100%30.12 "Hg1 mi
6:50 AM50 °FFog.1 mph100%30.12 "Hg0 mi
5:50 AM50 °FLight fog.2 mph94%30.12 "Hg2 mi
10:50 PM
Wed, Aug 26
59 °FPassing clouds.1 mph88%30.15 "Hg19 mi
9:50 PM61 °FPassing clouds.2 mph94%30.15 "Hg19 mi
Weather by CustomWeather, © 2015

See weather overviewHow to use our weather pages